Weather History for Lexington, NE

Change the Weather History Date:

Monday, October 20, 2014

  Actual Average Record
Temperature  
Mean Temperature 58 °F -  
Max Temperature 78 °F 60 °F 83 °F (2012)
Min Temperature 37 °F 35 °F 23 °F (2011)
Degree Days  
Heating Degree Days 8    
Growing Degree Days 8 (Base 50)    
Moisture  
Dew Point 41 °F    
Average Humidity 64    
Maximum Humidity 93    
Minimum Humidity 26    
Precipitation  
Precipitation 0.00 in - - ()
Sea Level Pressure  
Sea Level Pressure 30.08 in    
Wind  
Wind Speed 5 mph (SSW)    
Max Wind Speed 8 mph    
Max Gust Speed -    
Visibility 10 miles    
Events      
Averages and records for this station are not official NWS values.
T = Trace of Precipitation, MM = Missing Value Source: NWS Daily Summary

Daily Weather History Graph

Daily Weather History Graph

Search for Another Location

Airport:

Trip Planner

Search our weather history database for the weather conditions in past years. The results will help you decide how hot, cold, wet, or windy it might be!

Date:

Astronomy

Oct. 20, 2014 Rise Set
Actual Time 7:55 AM CDT 6:51 PM CDT
Civil Twilight 7:28 AM CDT 7:19 PM CDT
Nautical Twilight 6:56 AM CDT 7:50 PM CDT
Astronomical Twilight 6:24 AM CDT 8:22 PM CDT
Moon 4:44 AM CDT (10/20) 5:15 PM CDT (10/20)
Length of Visible Light 11h 50m
Length of Day
10h 55m
Waning Crescent, 10% of the Moon is Illuminated
Oct 20
Waning Crescent
Oct 23
New
Oct 30
First Quarter
Nov 6
Full
Nov 14
Last Quarter

Hourly Weather History & Observations

Time (CDT) Temp. Windchill Dew Point Humidity Pressure Visibility Wind Dir Wind Speed Gust Speed Precip Events Conditions
12:15 AM 43.3 °F 41.7 °F 40.8 °F 91% 30.05 in 7.0 mi WNW 3.5 mph - N/A   Clear
12:35 AM 43.2 °F 41.5 °F 40.6 °F 91% 30.06 in 10.0 mi West 3.5 mph - N/A   Clear
12:55 AM 42.4 °F 38.8 °F 39.7 °F 90% 30.06 in 10.0 mi West 5.8 mph - N/A   Clear
1:15 AM 43.0 °F 38.8 °F 41.0 °F 93% 30.06 in 10.0 mi West 6.9 mph - N/A   Clear
1:35 AM 41.9 °F 39.0 °F 39.7 °F 92% 30.06 in 10.0 mi West 4.6 mph - N/A   Clear
1:55 AM 42.1 °F 37.7 °F 40.3 °F 93% 30.07 in 10.0 mi NW 6.9 mph - N/A   Clear
2:15 AM 41.9 °F 38.2 °F 39.7 °F 92% 30.07 in 10.0 mi West 5.8 mph - N/A   Clear
2:35 AM 41.2 °F 38.2 °F 39.2 °F 93% 30.07 in 10.0 mi WNW 4.6 mph - N/A   Clear
2:55 AM 41.9 °F 37.5 °F 40.1 °F 93% 30.07 in 10.0 mi WNW 6.9 mph - N/A   Clear
3:15 AM 42.4 °F 39.6 °F 40.3 °F 92% 30.07 in 10.0 mi WNW 4.6 mph - N/A   Clear
3:35 AM 42.1 °F 37.7 °F 39.9 °F 92% 30.07 in 10.0 mi WNW 6.9 mph - N/A   Clear
3:55 AM 42.6 °F 38.4 °F 40.1 °F 91% 30.07 in 10.0 mi WNW 6.9 mph - N/A   Clear
4:15 AM 41.9 °F 39.0 °F 39.2 °F 90% 30.07 in 10.0 mi NW 4.6 mph - N/A   Clear
4:35 AM 40.6 °F 36.7 °F 38.1 °F 91% 30.07 in 10.0 mi WNW 5.8 mph - N/A   Clear
4:55 AM 40.1 °F 36.1 °F 37.6 °F 91% 30.08 in 10.0 mi West 5.8 mph - N/A   Clear
5:15 AM 40.6 °F 36.7 °F 37.9 °F 90% 30.08 in 10.0 mi WNW 5.8 mph - N/A   Clear
5:35 AM 40.1 °F 36.1 °F 37.6 °F 91% 30.08 in 10.0 mi WNW 5.8 mph - N/A   Clear
5:55 AM 39.4 °F 36.1 °F 36.9 °F 91% 30.09 in 10.0 mi WNW 4.6 mph - N/A   Clear
6:15 AM 39.4 °F 34.5 °F 36.9 °F 91% 30.09 in 10.0 mi WNW 6.9 mph - N/A   Clear
6:35 AM 39.4 °F 34.5 °F 36.5 °F 89% 30.10 in 10.0 mi WNW 6.9 mph - N/A   Clear
6:55 AM 38.5 °F 34.1 °F 35.6 °F 89% 30.10 in 10.0 mi WNW 5.8 mph - N/A   Clear
7:15 AM 37.9 °F 32.1 °F 35.6 °F 91% 30.10 in 10.0 mi WNW 8.1 mph - N/A   Clear
7:35 AM 37.9 °F 32.7 °F 35.6 °F 91% 30.10 in 10.0 mi WNW 6.9 mph - N/A   Clear
7:55 AM 37.8 °F 33.3 °F 35.6 °F 92% 30.10 in 10.0 mi WNW 5.8 mph - N/A   Clear
8:15 AM 37.8 °F 33.3 °F 35.8 °F 93% 30.11 in 7.0 mi West 5.8 mph - N/A   Clear
8:35 AM 39.9 °F 35.8 °F 37.6 °F 91% 30.12 in 10.0 mi WNW 5.8 mph - N/A   Clear
8:55 AM 42.3 °F 39.4 °F 39.4 °F 90% 30.13 in 10.0 mi WNW 4.6 mph - N/A   Clear
9:15 AM 44.6 °F 43.1 °F 40.6 °F 86% 30.13 in 10.0 mi WNW 3.5 mph - N/A   Clear
9:35 AM 47.5 °F - 42.4 °F 83% 30.14 in 10.0 mi WNW 3.5 mph - N/A   Clear
9:55 AM 50.5 °F - 44.2 °F 79% 30.14 in 10.0 mi Calm Calm - N/A   Clear
10:15 AM 54.1 °F - 44.2 °F 69% 30.14 in 10.0 mi Calm Calm - N/A   Clear
10:35 AM 57.2 °F - 44.2 °F 62% 30.14 in 10.0 mi Calm Calm - N/A   Clear
10:55 AM 59.7 °F - 44.6 °F 57% 30.14 in 10.0 mi Calm Calm - N/A   Clear
11:15 AM 62.2 °F - 43.9 °F 51% 30.14 in 10.0 mi ESE 4.6 mph - N/A   Clear
11:35 AM 64.2 °F - 44.1 °F 48% 30.14 in 10.0 mi East 3.5 mph - N/A   Clear
11:55 AM 66.2 °F - 43.2 °F 43% 30.14 in 10.0 mi ESE 6.9 mph - N/A   Clear
12:15 PM 67.8 °F - 44.1 °F 42% 30.13 in 10.0 mi ESE 6.9 mph - N/A   Clear
12:35 PM 69.6 °F - 43.9 °F 39% 30.13 in 10.0 mi ESE 5.8 mph - N/A   Clear
12:55 PM 71.6 °F - 43.5 °F 36% 30.13 in 10.0 mi South 4.6 mph - N/A   Clear
1:15 PM 72.5 °F - 41.4 °F 32% 30.12 in 10.0 mi ESE 4.6 mph - N/A   Clear
1:35 PM 73.9 °F - 41.7 °F 31% 30.11 in 10.0 mi SE 5.8 mph - N/A   Clear
1:55 PM 74.3 °F - 40.8 °F 30% 30.11 in 10.0 mi South 5.8 mph - N/A   Clear
2:15 PM 74.7 °F - 41.5 °F 30% 30.10 in 10.0 mi SE 5.8 mph - N/A   Clear
2:35 PM 75.9 °F - 41.4 °F 29% 30.09 in 10.0 mi SSE 4.6 mph - N/A   Clear
2:55 PM 76.6 °F - 41.0 °F 28% 30.08 in 10.0 mi SSE 5.8 mph - N/A   Clear
3:15 PM 76.8 °F - 40.8 °F 27% 30.07 in 10.0 mi SE 3.5 mph - N/A   Clear
3:35 PM 77.4 °F - 40.6 °F 27% 30.06 in 10.0 mi South 4.6 mph - N/A   Clear
3:55 PM 77.5 °F - 40.6 °F 27% 30.06 in 10.0 mi SSE 8.1 mph - N/A   Clear
4:15 PM 78.1 °F - 40.5 °F 26% 30.06 in 10.0 mi SSW 4.6 mph - N/A   Clear
4:35 PM 77.9 °F - 40.3 °F 26% 30.06 in 10.0 mi SSW 3.5 mph - N/A   Clear
4:55 PM 77.9 °F - 40.1 °F 26% 30.06 in 10.0 mi South 6.9 mph - N/A   Clear
5:15 PM 77.4 °F - 40.1 °F 26% 30.06 in 10.0 mi SSE 5.8 mph - N/A   Clear
5:35 PM 76.5 °F - 40.3 °F 27% 30.06 in 10.0 mi SSE 6.9 mph - N/A   Clear
5:55 PM 75.2 °F - 40.5 °F 29% 30.06 in 10.0 mi South 6.9 mph - N/A   Clear
6:15 PM 72.5 °F - 41.5 °F 33% 30.05 in 10.0 mi South 5.8 mph - N/A   Clear
6:35 PM 70.5 °F - 41.4 °F 35% 30.05 in 7.0 mi SSE 4.6 mph - N/A   Clear
6:55 PM 68.0 °F - 41.4 °F 38% 30.06 in 10.0 mi SSE 5.8 mph - N/A   Clear
7:15 PM 65.5 °F - 41.7 °F 42% 30.06 in 10.0 mi SSE 6.9 mph - N/A   Clear
7:35 PM 62.4 °F - 41.9 °F 47% 30.06 in 10.0 mi SSE 5.8 mph - N/A   Clear
7:55 PM 60.8 °F - 41.9 °F 50% 30.06 in 10.0 mi SSE 6.9 mph - N/A   Clear
8:15 PM 59.9 °F - 42.3 °F 52% 30.06 in 10.0 mi SSE 5.8 mph - N/A   Clear
8:35 PM 57.0 °F - 42.6 °F 59% 30.06 in 7.0 mi SSE 4.6 mph - N/A   Clear
8:55 PM 57.7 °F - 42.1 °F 56% 30.06 in 7.0 mi SSE 4.6 mph - N/A   Clear
9:15 PM 54.0 °F - 41.9 °F 64% 30.06 in 10.0 mi South 4.6 mph - N/A   Clear
9:35 PM 54.0 °F - 41.2 °F 62% 30.06 in 10.0 mi SE 3.5 mph - N/A   Clear
9:55 PM 55.0 °F - 41.4 °F 60% 30.06 in 10.0 mi SSE 4.6 mph - N/A   Clear
10:15 PM 54.1 °F - 41.2 °F 62% 30.06 in 10.0 mi Calm Calm - N/A   Clear
10:35 PM 52.3 °F - 41.0 °F 65% 30.06 in 10.0 mi SSE 3.5 mph - N/A   Clear
10:55 PM 53.2 °F - 41.0 °F 63% 30.06 in 10.0 mi SE 3.5 mph - N/A   Clear
11:15 PM 52.3 °F - 41.0 °F 65% 30.07 in 10.0 mi Calm Calm - N/A   Clear
11:35 PM 52.3 °F - 41.0 °F 65% 30.06 in 10.0 mi SSE 5.8 mph - N/A   Clear
11:55 PM 52.7 °F - 41.4 °F 65% 30.06 in 10.0 mi SE 5.8 mph - N/A   Clear